| time (UTC) | temp F | wind direction | speed MPH | gust MPH | rain 1hr in | rain 24hr in | rain mn in | humidity % | barometer mb |
| 20260506224522 | 43 | 274 | 3.0 | 8.0 | 0.00 | 0.00 | 0.00 | 51 | 1012.2 |
| 20260506223028 | 43 | 238 | 1.0 | 7.0 | 0.00 | 0.00 | 0.00 | 51 | 1012.2 |
| 20260506221528 | 43 | 305 | 1.0 | 7.0 | 0.00 | 0.00 | 0.00 | 50 | 1012.2 |
| 20260506220022 | 43 | 344 | 2.0 | 9.0 | 0.00 | 0.00 | 0.00 | 49 | 1012.0 |
| 20260506214521 | 44 | 298 | 3.0 | 7.0 | 0.00 | 0.00 | 0.00 | 50 | 1012.1 |
| 20260506213026 | 43 | 264 | 3.0 | 9.0 | 0.00 | 0.00 | 0.00 | 49 | 1012.0 |
| 20260506211527 | 43 | 308 | 1.0 | 9.0 | 0.00 | 0.00 | 0.00 | 48 | 1011.9 |
| 20260506210031 | 44 | 291 | 2.0 | 9.0 | 0.00 | 0.00 | 0.00 | 48 | 1012.0 |
| 20260506204523 | 44 | 342 | 0.0 | 9.0 | 0.00 | 0.00 | 0.00 | 48 | 1011.9 |
| 20260506203022 | 44 | 281 | 4.0 | 11.0 | 0.00 | 0.00 | 0.00 | 48 | 1012.0 |
| 20260506201527 | 43 | 230 | 4.0 | 11.0 | 0.00 | 0.00 | 0.00 | 51 | 1012.0 |
| 20260506200027 | 43 | 309 | 4.0 | 7.0 | 0.00 | 0.00 | 0.00 | 51 | 1012.1 |
| 20260506194528 | 43 | 338 | 2.0 | 7.0 | 0.00 | 0.00 | 0.00 | 51 | 1012.1 |
| 20260506193018 | 43 | 350 | 3.0 | 10.0 | 0.00 | 0.00 | 0.00 | 52 | 1012.0 |
| 20260506191525 | 42 | 257 | 4.0 | 10.0 | 0.00 | 0.00 | 0.00 | 52 | 1012.2 |
| 20260506190028 | 43 | 285 | 5.0 | 12.0 | 0.00 | 0.00 | 0.00 | 51 | 1012.0 |
| 20260506184529 | 43 | 304 | 4.0 | 9.0 | 0.00 | 0.00 | 0.00 | 51 | 1012.0 |
| 20260506183001 | 43 | 250 | 5.0 | 11.0 | 0.00 | 0.00 | 0.00 | 53 | 1012.0 |
| 20260506181506 | 43 | 276 | 5.0 | 14.0 | 0.00 | 0.00 | 0.00 | 53 | 1012.2 |
| 20260506180006 | 42 | 259 | 2.0 | 8.0 | 0.00 | 0.00 | 0.00 | 53 | 1012.2 |
| 20260506174506 | 43 | 354 | 5.0 | 12.0 | 0.00 | 0.00 | 0.00 | 53 | 1012.2 |
| 20260506173005 | 42 | 243 | 0.0 | 7.0 | 0.00 | 0.00 | 0.00 | 53 | 1012.2 |
| 20260506171509 | 41 | 295 | 2.0 | 9.0 | 0.00 | 0.00 | 0.00 | 54 | 1012.3 |
| 20260506170007 | 42 | 303 | 3.0 | 7.0 | 0.00 | 0.00 | 0.00 | 53 | 1012.3 |
| 20260506164506 | 42 | 328 | 3.0 | 6.0 | 0.00 | 0.00 | 0.00 | 55 | 1012.3 |
| 20260506163009 | 41 | 294 | 2.0 | 8.0 | 0.00 | 0.00 | 0.00 | 53 | 1012.4 |
| 20260506161506 | 42 | 312 | 3.0 | 7.0 | 0.00 | 0.00 | 0.00 | 51 | 1012.2 |
| 20260506160016 | 41 | 347 | 3.0 | 8.0 | 0.00 | 0.00 | 0.00 | 52 | 1012.3 |
| 20260506154509 | 41 | 205 | 3.0 | 9.0 | 0.00 | 0.00 | 0.00 | 50 | 1012.2 |
| 20260506153003 | 41 | 292 | 4.0 | 9.0 | 0.00 | 0.00 | 0.00 | 49 | 1012.1 |
| 20260506151506 | 40 | 335 | 2.0 | 12.0 | 0.00 | 0.00 | 0.00 | 49 | 1012.0 |
| 20260506150006 | 41 | 298 | 4.0 | 10.0 | 0.00 | 0.00 | 0.00 | 48 | 1011.9 |
| 20260506144508 | 40 | 357 | 2.0 | 11.0 | 0.00 | 0.00 | 0.00 | 50 | 1011.9 |
| 20260506143008 | 40 | 295 | 2.0 | 8.0 | 0.00 | 0.00 | 0.00 | 51 | 1012.0 |
| 20260506141508 | 40 | 284 | 1.0 | 6.0 | 0.00 | 0.00 | 0.00 | 52 | 1011.9 |
| 20260506140006 | 39 | 257 | 3.0 | 10.0 | 0.00 | 0.00 | 0.00 | 54 | 1011.9 |
| 20260506134508 | 39 | 295 | 2.0 | 7.0 | 0.00 | 0.00 | 0.00 | 57 | 1011.9 |
| 20260506133008 | 38 | 245 | 1.0 | 7.0 | 0.00 | 0.00 | 0.00 | 58 | 1011.8 |
| 20260506131509 | 38 | 282 | 2.0 | 12.0 | 0.00 | 0.00 | 0.00 | 59 | 1011.7 |
| 20260506130009 | 38 | 276 | 3.0 | 8.0 | 0.00 | 0.00 | 0.00 | 58 | 1011.5 |
| 20260506124510 | 38 | 271 | 0.0 | 5.0 | 0.00 | 0.00 | 0.00 | 62 | 1011.4 |
| 20260506123010 | 37 | 346 | 1.0 | 9.0 | 0.00 | 0.00 | 0.00 | 63 | 1011.4 |
| 20260506121508 | 37 | 360 | 1.0 | 7.0 | 0.00 | 0.00 | 0.00 | 66 | 1011.3 |
| 20260506120010 | 36 | 360 | 3.0 | 7.0 | 0.00 | 0.00 | 0.00 | 65 | 1011.2 |
| 20260506114512 | 36 | 360 | 1.0 | 3.0 | 0.00 | 0.00 | 0.00 | 66 | 1011.0 |
| 20260506113012 | 36 | 360 | 0.0 | 7.0 | 0.00 | 0.00 | 0.00 | 65 | 1010.9 |
| 20260506111513 | 36 | 360 | 1.0 | 3.0 | 0.00 | 0.00 | 0.00 | 66 | 1010.9 |
| 20260506110013 | 36 | 360 | 1.0 | 5.0 | 0.00 | 0.00 | 0.00 | 66 | 1010.8 |
| 20260506104510 | 36 | 360 | 1.0 | 4.0 | 0.00 | 0.00 | 0.00 | 66 | 1010.6 |
| 20260506103014 | 36 | 360 | 0.0 | 3.0 | 0.00 | 0.00 | 0.00 | 66 | 1010.4 |
| 20260506101514 | 36 | 360 | 0.0 | 3.0 | 0.00 | 0.00 | 0.00 | 67 | 1010.4 |
| 20260506100011 | 36 | 360 | 1.0 | 4.0 | 0.00 | 0.00 | 0.00 | 67 | 1010.3 |
| 20260506094512 | 36 | 360 | 1.0 | 4.0 | 0.00 | 0.00 | 0.00 | 67 | 1010.3 |
| 20260506093016 | 36 | 360 | 0.0 | 5.0 | 0.00 | 0.00 | 0.00 | 67 | 1010.4 |
| 20260506091514 | 36 | 360 | 2.0 | 4.0 | 0.00 | 0.00 | 0.00 | 66 | 1010.4 |
| 20260506090016 | 36 | 360 | 0.0 | 3.0 | 0.00 | 0.00 | 0.00 | 66 | 1010.3 |
| 20260506084516 | 36 | 360 | 1.0 | 4.0 | 0.00 | 0.00 | 0.00 | 66 | 1010.3 |
| 20260506083014 | 36 | 360 | 0.0 | 3.0 | 0.00 | 0.00 | 0.00 | 65 | 1010.4 |
| 20260506081516 | 36 | 360 | 0.0 | 4.0 | 0.00 | 0.00 | 0.00 | 64 | 1010.3 |
| 20260506073018 | 36 | 360 | 0.0 | 4.0 | 0.00 | 0.00 | 0.00 | 62 | 1010.0 |
| 20260506071517 | 37 | 360 | 0.0 | 4.0 | 0.00 | 0.00 | 0.00 | 62 | 1010.0 |
| 20260506061508 | 37 | 360 | 1.0 | 4.0 | 0.00 | 0.00 | 0.00 | 60 | 1010.0 |
| 20260506044507 | 37 | 360 | 0.0 | 4.0 | 0.00 | 0.00 | 0.00 | 60 | 1010.0 |
| 20260506043016 | 37 | 360 | 1.0 | 5.0 | 0.00 | 0.00 | 0.00 | 60 | 1010.0 |
| 20260506041520 | 36 | 360 | 0.0 | 4.0 | 0.00 | 0.00 | 0.00 | 60 | 1010.0 |
| 20260506040005 | 36 | 360 | 0.0 | 4.0 | 0.00 | 0.00 | 0.00 | 59 | 1010.1 |
| 20260506034504 | 37 | 360 | 2.0 | 5.0 | 0.00 | 0.00 | 0.00 | 59 | 1010.1 |
| 20260506033008 | 37 | 360 | 0.0 | 3.0 | 0.00 | 0.00 | 0.00 | 60 | 1010.1 |
| 20260506031530 | 37 | 360 | 1.0 | 4.0 | 0.00 | 0.00 | 0.00 | 59 | 1010.1 |
| 20260506030020 | 37 | 360 | 0.0 | 4.0 | 0.00 | 0.00 | 0.00 | 58 | 1010.1 |
| 20260506024513 | 37 | 360 | 0.0 | 4.0 | 0.00 | 0.00 | 0.00 | 57 | 1010.2 |
| 20260506023007 | 37 | 360 | 0.0 | 7.0 | 0.00 | 0.00 | 0.00 | 59 | 1010.1 |
| 20260506021512 | 37 | 360 | 0.0 | 4.0 | 0.00 | 0.00 | 0.00 | 59 | 1010.0 |
| 20260506020017 | 37 | 360 | 2.0 | 5.0 | 0.00 | 0.00 | 0.00 | 57 | 1009.9 |
| 20260506014522 | 37 | 360 | 0.0 | 6.0 | 0.00 | 0.00 | 0.00 | 58 | 1009.7 |
| 20260506013004 | 37 | 360 | 0.0 | 7.0 | 0.00 | 0.00 | 0.00 | 58 | 1009.6 |
| 20260506011510 | 37 | 360 | 0.0 | 7.0 | 0.00 | 0.00 | 0.00 | 58 | 1009.6 |
| 20260506010014 | 37 | 360 | 3.0 | 10.0 | 0.00 | 0.00 | 0.00 | 57 | 1009.6 |
| 20260506004524 | 38 | 360 | 5.0 | 13.0 | 0.00 | 0.00 | 0.00 | 56 | 1009.6 |
| 20260506003023 | 39 | 288 | 1.0 | 9.0 | 0.00 | 0.00 | 0.00 | 56 | 1009.2 |
| 20260506001524 | 39 | 288 | 3.0 | 16.0 | 0.00 | 0.00 | 0.00 | 54 | 1009.0 |
| 20260506000009 | 40 | 291 | 3.0 | 14.0 | 0.00 | 0.00 | 0.00 | 53 | 1008.9 |
| 20260505234516 | 40 | 349 | 6.0 | 14.0 | 0.00 | 0.00 | 0.00 | 52 | 1008.9 |
| 20260505233019 | 40 | 360 | 2.0 | 11.0 | 0.00 | 0.00 | 0.00 | 53 | 1008.7 |
| 20260505231529 | 41 | 306 | 4.0 | 11.0 | 0.00 | 0.00 | 0.00 | 53 | 1008.7 |
| 20260505230028 | 41 | 360 | 5.0 | 12.0 | 0.00 | 0.00 | 0.00 | 51 | 1008.8 |